星链-11355 (STARLINK-11355)

导读

STARLINK-11355是美国SpaceX星链星座的一员,属于星链V1.0版本卫星,于2024年12月23日由猎鹰9号火箭在美国肯尼迪太空中心发射升空,归入星链Group 12批次部署。它运行在倾角约53°的近地轨道,单颗重约386kg,配备太阳能电池阵与相控阵天线,旨在为全球提供高速卫星互联网接入服务,目前仍处于工作状态。

基本信息
目录编号:
62415
目录名称:
STARLINK-11355
国际标识:
2024-249G
轨道中心:
EARTH
卫星名称:
星链-11355
卫星全名:
星链-11355 (STARLINK-11355)
卫星状态:
在轨 (已飞行627 天)
发射日期:
2024-12-23 UTC
国别 :
美国 (US)
星等 :
--
该卫星已列入 空间交会检测服务 Space Conjunction Data Service (SCDS) ,当前飞行风险评估等级: 无高风险
轨道信息
数据来源 国际轨道数据
星历时间: 2026-09-11T08:56:01+0800
14小时前
查看轨道信息
半长轴: 6734.485km
偏心率: 0.0003049
轨道倾角: 43.004°
近地点辐角 270.279°
升交点赤经 130.209°
平近点角 89.773°
近地点: 354.294km
远地点: 358.402km
周期: 91.668分钟
每日圈数: 15.708916
详细信息
固有亮度:
5
最大亮度:
2.5
卫星平台:
Starlink V1.0
覆盖范围:
全球
运营商:
太空探索技术公司
运营商所在国:
美国
制造商(研发单位):
太空探索技术公司
制造商所在国:
美国
使用方式:
暂无
卫星简介
Starlink 计划是 SpaceX 推出的全球卫星互联网项目,通过发射低轨道卫星,为全球尤其是偏远地区提供高速、低延迟的互联网服务。自 2019 年起,Starlink 已部署数千颗卫星,旨在缩小全球数字鸿沟,推动互联网普及。该项目还为军事、航空等行业提供通信支持,带来广泛经济效益。
2D轨道图
3D轨道图
轨道高度分析图
轨道倾角分析图
轨道综合分析图
查看轨道综合分析图
交会数据列表
事件ID 空间交会对象 最接近时刻(TCA) 交会距离 交会风险概率(CRP) 交会风险指数(CRI) 操作
CDM_260913-154906-241506-355121
2026-09-13T
15:49:59+0000
1.215 km
极远距离
2.878141E-6 低风险 0.44
CDM_260913-111106-241506-327321
2026-09-13T
11:11:26+0000
2.139 km
极远距离
1.2441E-6 低风险 0.37
CDM_260913-115706-241506-327321
2026-09-13T
11:57:11+0000
2.553 km
极远距离
8.957527E-7 极低风险 0.34
与全量物体交会距离演化趋势
与全量物体交会风险概率演化趋势